Location: Almena Post Office
(39.8928°N, 99.7066°W)
Time: 07:33:05
(UTC+00:00)

Sich 1 - Pass Details

Date: 27 February 2020
Orbit: 595 x 624 km, 82.5° (Epoch: 06 April)

Event Time Altitude Azimuth Distance (km) Brightness Sun altitude
Rises 12:11:57 0° 338° (NNW) 2,861 6.2 -13.0°
Reaches altitude 10° 12:14:30 10° 324° (NW) 1,957 5.3 -12.5°
Maximum altitude 12:17:54 23° 272° (W) 1,303 4.1 -11.8°
Drops below altitude 10° 12:21:19 10° 219° (SW) 1,959 5.3 -11.2°
Sets 12:23:53 0° 205° (SSW) 2,864 6.2 -10.7°
